DW5656 Sevilla ES current weather conditions

sailwx.info

Wind from 272 at 0 knots gusting 2

Air temperature 16.7° C
Dewpoint 14.8° C

Last reported at 2019-Oct-18 05:09 UTC.
Time now 2019-Oct-18 06:05 UTC

Location: N 37°23' W 005°59'.
View on Google Maps.

See reports from other nearby stations

  
Tides and Currents Weather Stations Pressure Air Temp Water Temp Dewpoint Dewpoint Depression Visibility Wind Speed Wind Dir Waves Ship Positions
date/time (UTC)wind fromknots sea level pressurealtimeterstation pressurevisibilityair tempwater tempwave heightnotes
2019-Oct-18 05:09 272 0 gusting 2 16.7
2019-Oct-18 05:00 272 0 gusting 1 16.7
2019-Oct-18 04:51 272 0 gusting 1 16.7
2019-Oct-18 04:42 272 0 gusting 2 16.7
2019-Oct-18 04:33 17.2
2019-Oct-18 04:24 273 17.2
2019-Oct-18 04:15 273 17.2
2019-Oct-18 04:06 268 16.7
2019-Oct-18 03:57 17.2
2019-Oct-18 03:48 16.7
2019-Oct-18 03:39 17.2
2019-Oct-18 03:30 187 0 gusting 2 17.2
2019-Oct-18 03:21 230 0 gusting 2 17.2
2019-Oct-18 03:12 230 0 gusting 2 17.2
2019-Oct-18 03:03 230 0 gusting 2 17.2
2019-Oct-18 02:54 230 0 gusting 2 17.2
2019-Oct-18 02:45 211 1 gusting 3 17.2
2019-Oct-18 02:36 230 1 gusting 3 17.2
2019-Oct-18 02:27 230 0 gusting 3 17.2
2019-Oct-18 02:18 231 0 gusting 3 17.2
2019-Oct-18 02:09 220 1 gusting 3 17.2
2019-Oct-18 02:00 218 1 gusting 3 17.2
2019-Oct-18 01:51 216 0 gusting 4 17.2
2019-Oct-18 01:42 241 1 gusting 2 17.2
2019-Oct-18 01:33 236 1 gusting 3 17.8
2019-Oct-18 01:24 245 1 gusting 3 17.8
2019-Oct-18 01:15 233 0 gusting 3 17.8
2019-Oct-18 01:06 232 0 gusting 2 17.8
2019-Oct-18 00:57 217 0 gusting 2 17.8
2019-Oct-18 00:48 211 0 gusting 2 17.8
2019-Oct-18 00:39 210 0 gusting 2 17.8
2019-Oct-18 00:30 219 0 gusting 3 17.8
2019-Oct-18 00:21 227 1 gusting 3 17.8
2019-Oct-18 00:12 207 1 gusting 3 17.8
2019-Oct-18 00:03 216 0 gusting 3 18.3
2019-Oct-17 23:54 228 0 gusting 3 18.3
2019-Oct-17 23:45 223 1 gusting 2 18.3
2019-Oct-17 23:36 211 1 gusting 4 18.3
2019-Oct-17 23:27 206 0 gusting 4 18.3
2019-Oct-17 23:18 205 1 gusting 3 18.3
2019-Oct-17 23:09 204 1 gusting 3 18.3
2019-Oct-17 23:00 226 1 gusting 3 18.3
2019-Oct-17 22:51 208 1 gusting 3 18.9
2019-Oct-17 22:42 205 1 gusting 3 18.9
2019-Oct-17 22:33 196 1 gusting 3 18.9
2019-Oct-17 22:24 208 1 gusting 4 18.9
2019-Oct-17 22:15 217 1 gusting 6 18.9
2019-Oct-17 22:06 205 1 gusting 6 19.4
2019-Oct-17 21:57 206 1 gusting 5 19.4
2019-Oct-17 21:48 204 1 gusting 4 19.4
2019-Oct-17 21:39 217 1 gusting 3 19.4
2019-Oct-17 21:30 205 1 gusting 3 19.4
2019-Oct-17 21:21 217 1 gusting 4 20.0
2019-Oct-17 21:12 214 0 gusting 4 20.0
2019-Oct-17 21:03 176 1 gusting 3 20.0
2019-Oct-17 20:54 198 1 gusting 4 20.0
2019-Oct-17 20:45 207 1 gusting 4 20.6
2019-Oct-17 20:36 201 1 gusting 4 20.6
2019-Oct-17 20:27 224 1 gusting 3 20.6
2019-Oct-17 20:18 219 1 gusting 4 21.1
2019-Oct-17 20:09 217 1 gusting 2 21.1
2019-Oct-17 20:00 204 1 gusting 5 21.1
2019-Oct-17 19:51 232 1 gusting 4 21.1
2019-Oct-17 19:42 250 2 gusting 3 21.7
2019-Oct-17 19:33 240 2 gusting 6 21.7
2019-Oct-17 19:24 248 3 gusting 6 21.7
2019-Oct-17 19:15 248 3 gusting 6 21.7
2019-Oct-17 19:06 242 2 gusting 6 22.2
2019-Oct-17 18:57 242 2 gusting 9 22.2
2019-Oct-17 18:48 232 2 gusting 6 22.2
2019-Oct-17 18:39 224 3 gusting 6 22.8
2019-Oct-17 18:30 237 5 gusting 9 22.8
2019-Oct-17 18:21 240 3 gusting 9 22.8
2019-Oct-17 18:12 243 3 gusting 8 22.8
2019-Oct-17 18:03 229 2 gusting 6 22.8
2019-Oct-17 17:54 215 3 gusting 6 23.3
2019-Oct-17 17:45 220 3 gusting 8 23.3
2019-Oct-17 17:36 214 3 gusting 7 23.3
2019-Oct-17 17:27 210 2 gusting 8 23.3
2019-Oct-17 10:45 123 1 gusting 6 20.6
2019-Oct-17 10:36 132 1 gusting 5 20.0
2019-Oct-17 10:27 107 1 gusting 5 20.0
2019-Oct-17 10:18 049 1 gusting 5 19.4
2019-Oct-17 10:09 089 1 gusting 5 19.4
2019-Oct-17 10:00 091 1 gusting 5 19.4
2019-Oct-17 09:51 110 1 gusting 5 18.9
2019-Oct-17 09:42 093 1 gusting 5 18.9
2019-Oct-17 09:33 113 0 gusting 5 18.9
2019-Oct-17 09:24 091 1 gusting 3 17.8
2019-Oct-17 09:15 075 1 gusting 6 17.8
2019-Oct-17 09:06 086 1 gusting 4 17.8
2019-Oct-17 08:57 087 2 gusting 5 17.2
2019-Oct-17 08:48 118 1 gusting 6 16.7
2019-Oct-17 08:39 086 1 gusting 3 16.7
2019-Oct-17 08:30 104 0 gusting 3 16.7
2019-Oct-17 08:21 133 16.7
2019-Oct-17 08:12 137 0 gusting 1 16.1
2019-Oct-17 08:03 132 0 gusting 3 15.0
2019-Oct-17 07:54 028 0 gusting 2 14.4
2019-Oct-17 07:45 015 1 gusting 1 13.9
2019-Oct-17 07:36 357 2 gusting 4 13.3
2019-Oct-17 07:27 332 1 gusting 4 13.9
2019-Oct-17 07:18 358 1 gusting 3 13.9
2019-Oct-17 07:09 281 1 gusting 2 13.9
2019-Oct-17 07:00 268 1 gusting 2 13.9
2019-Oct-17 06:51 268 0 gusting 2 13.9
2019-Oct-17 06:42 268 0 gusting 2 13.9
2019-Oct-17 06:33 258 0 gusting 2 13.9
2019-Oct-17 06:24 211 0 gusting 1 13.9
2019-Oct-17 06:15 211 0 gusting 1 13.9
2019-Oct-17 06:06 189 0 gusting 2 14.4
2019-Oct-17 05:57 161 0 gusting 3 14.4
2019-Oct-17 05:48 145 0 gusting 1 14.4
2019-Oct-17 05:39 021 0 gusting 1 14.4
2019-Oct-17 05:30 358 0 gusting 1 14.4
2019-Oct-17 05:21 352 0 gusting 2 14.4
2019-Oct-17 05:12 348 1 gusting 2 14.4
2019-Oct-17 05:03 360 1 gusting 3 14.4
2019-Oct-17 04:54 346 1 gusting 3 14.4
2019-Oct-17 04:45 330 14.4
2019-Oct-17 04:36 14.4
2019-Oct-17 04:27 327 1 gusting 3 15.0
2019-Oct-17 04:18 308 15.0
2019-Oct-17 04:09 15.0
2019-Oct-17 04:00 14.4
2019-Oct-17 03:51 14.4
2019-Oct-17 03:42 14.4
2019-Oct-17 03:33 14.4
2019-Oct-17 03:24 239 14.4
2019-Oct-17 03:15 239 14.4
2019-Oct-17 03:06 239 14.4
2019-Oct-17 02:57 239 14.4
2019-Oct-17 02:48 239 0 gusting 2 14.4
2019-Oct-17 02:39 281 1 gusting 3 14.4
2019-Oct-17 02:30 282 0 gusting 3 15.0
2019-Oct-17 02:21 220 0 gusting 2 15.0
2019-Oct-17 02:12 208 1 gusting 2 15.0
2019-Oct-17 02:03 198 1 gusting 3 15.0
2019-Oct-17 01:54 201 1 gusting 3 15.0
2019-Oct-17 01:45 209 1 gusting 3 15.0
2019-Oct-17 01:36 211 1 gusting 3 15.0
2019-Oct-17 01:27 216 0 gusting 2 15.6
2019-Oct-17 01:18 216 0 gusting 2 15.6
2019-Oct-17 01:09 207 16.1
2019-Oct-17 01:00 206 1 gusting 2 16.1
2019-Oct-17 00:51 209 2 gusting 4 16.7
2019-Oct-17 00:42 210 1 gusting 4 17.2
2019-Oct-17 00:33 209 17.8
2019-Oct-17 00:24 17.8
2019-Oct-17 00:15 347 17.8
2019-Oct-17 00:06 342 18.3
2019-Oct-16 23:57 294 0 gusting 1 18.3
2019-Oct-16 23:48 294 0 gusting 1 18.3
2019-Oct-16 23:39 294 0 gusting 1 18.3
2019-Oct-16 23:30 293 18.3
2019-Oct-16 23:21 18.3
2019-Oct-16 23:12 18.9
2019-Oct-16 23:03 292 0 gusting 1 18.9
2019-Oct-16 22:54 292 1 gusting 3 18.9
2019-Oct-16 22:45 296 1 gusting 6 18.9
2019-Oct-16 22:36 312 0 gusting 3 18.9
2019-Oct-16 22:27 317 1 gusting 3 18.9
2019-Oct-16 22:18 314 2 gusting 4 18.9
2019-Oct-16 22:09 301 2 gusting 6 18.9
2019-Oct-16 22:00 302 2 gusting 7 18.9
2019-Oct-16 21:51 308 2 gusting 6 18.9
2019-Oct-16 21:42 312 1 gusting 8 18.9
2019-Oct-16 21:33 303 1 gusting 4 18.9
2019-Oct-16 21:24 294 2 gusting 4 18.9
2019-Oct-16 21:15 298 2 gusting 7 19.4
2019-Oct-16 21:06 300 3 gusting 9 19.4
2019-Oct-16 20:57 309 2 gusting 7 19.4
2019-Oct-16 20:48 307 2 gusting 7 19.4
2019-Oct-16 20:39 296 2 gusting 6 19.4
2019-Oct-16 20:30 272 3 gusting 7 20.0
2019-Oct-16 20:21 266 4 gusting 7 20.0
2019-Oct-16 20:12 262 4 gusting 9 20.0
2019-Oct-16 20:03 256 5 gusting 8 20.0
2019-Oct-16 19:54 261 3 gusting 8 20.6
2019-Oct-16 19:45 281 2 gusting 6 20.6
2019-Oct-16 19:36 267 2 gusting 6 20.6
2019-Oct-16 19:27 272 3 gusting 7 21.1
2019-Oct-16 19:18 263 4 gusting 7 21.1
2019-Oct-16 19:09 261 4 gusting 8 21.1
2019-Oct-16 19:00 260 4 gusting 9 21.7
2019-Oct-16 18:51 260 3 gusting 9 21.7
2019-Oct-16 18:42 244 2 gusting 6 21.7
2019-Oct-16 18:33 240 2 gusting 5 22.2
2019-Oct-16 18:24 239 2 gusting 8 22.2
2019-Oct-16 18:15 237 2 gusting 4 22.2
2019-Oct-16 18:06 224 1 gusting 4 22.8
2019-Oct-16 17:57 217 1 gusting 4 22.8
2019-Oct-16 17:48 214 1 gusting 4 22.8
2019-Oct-16 17:39 215 1 gusting 3 23.3
2019-Oct-16 17:30 212 2 gusting 4 23.3
2019-Oct-16 17:21 205 2 gusting 4 23.9
2019-Oct-16 17:12 220 0 gusting 5 24.4
2019-Oct-16 17:03 223 1 gusting 2 24.4
2019-Oct-16 16:54 210 1 gusting 4 24.4
2019-Oct-16 16:45 271 0 gusting 4 25.0
2019-Oct-16 16:36 295 0 gusting 2 25.0
2019-Oct-16 16:27 073 0 gusting 1 25.0
2019-Oct-16 16:18 075 0 gusting 3 25.0
2019-Oct-16 16:09 267 0 gusting 2 24.4
2019-Oct-16 16:00 269 1 gusting 4 24.4
2019-Oct-16 15:51 165 1 gusting 5 24.4
2019-Oct-16 15:42 248 1 gusting 4 24.4
2019-Oct-16 15:33 210 1 gusting 5 24.4
2019-Oct-16 15:24 319 0 gusting 3 24.4
2019-Oct-16 15:15 360 2 gusting 3 23.9
2019-Oct-16 15:06 324 2 gusting 4 23.9
2019-Oct-16 14:57 259 1 gusting 4 24.4
2019-Oct-16 14:48 298 0 gusting 3 24.4
2019-Oct-16 14:39 187 2 gusting 6 23.9
2019-Oct-16 14:30 248 2 gusting 5 23.9
2019-Oct-16 14:21 238 1 gusting 6 23.9
2019-Oct-16 14:12 251 1 gusting 5 23.9
2019-Oct-16 14:03 249 0 gusting 3 23.9
2019-Oct-16 13:54 235 0 gusting 2 23.9
2019-Oct-16 13:45 347 1 gusting 3 23.3
2019-Oct-16 13:36 016 2 gusting 4 23.3
2019-Oct-16 13:27 015 2 gusting 5 22.8
2019-Oct-16 13:18 356 1 gusting 6 22.8
2019-Oct-16 13:09 292 2 gusting 7 22.2
2019-Oct-16 13:00 332 2 gusting 4 22.2
2019-Oct-16 12:51 347 1 gusting 6 22.2
2019-Oct-16 12:42 047 1 gusting 6 22.8
2019-Oct-16 12:33 205 0 gusting 5 22.8
2019-Oct-16 12:24 165 1 gusting 4 22.2
2019-Oct-16 12:06 044 2 gusting 7 21.7
2019-Oct-16 11:57 065 1 gusting 5 21.7
2019-Oct-16 11:48 019 0 gusting 4 21.7
2019-Oct-16 11:39 353 1 gusting 2 21.1
2019-Oct-16 11:30 028 1 gusting 6 20.6
2019-Oct-16 11:21 044 2 gusting 4 20.6
2019-Oct-16 11:12 029 3 gusting 5 20.0
2019-Oct-16 11:03 058 3 gusting 7 20.0
2019-Oct-16 10:54 074 3 gusting 5 19.4
2019-Oct-16 10:45 062 2 gusting 6 19.4
2019-Oct-16 10:36 058 2 gusting 7 19.4
2019-Oct-16 10:27 049 3 gusting 7 18.9
2019-Oct-16 10:18 049 4 gusting 8 18.3
2019-Oct-16 10:09 072 4 gusting 8 18.3
2019-Oct-16 10:00 063 3 gusting 8 17.8
2019-Oct-16 09:51 069 3 gusting 7 17.2
2019-Oct-16 09:42 066 4 gusting 8 17.2
2019-Oct-16 09:33 054 3 gusting 8 16.7
2019-Oct-16 09:24 050 4 gusting 8 16.7
2019-Oct-16 09:15 050 5 gusting 7 16.1
2019-Oct-16 09:06 039 5 gusting 8 16.1
2019-Oct-16 08:57 038 4 gusting 9 15.6
2019-Oct-16 08:48 051 3 gusting 7 15.6
2019-Oct-16 08:39 056 3 gusting 7 15.0
2019-Oct-16 08:30 034 3 gusting 7 14.4
2019-Oct-16 08:21 061 3 gusting 7 14.4
2019-Oct-16 08:12 038 4 gusting 8 14.4
2019-Oct-16 08:03 041 4 gusting 7 13.9
2019-Oct-16 07:54 044 4 gusting 8 13.9
2019-Oct-16 07:45 037 4 gusting 8 13.3
2019-Oct-16 07:36 039 3 gusting 8 13.3
2019-Oct-16 07:27 069 2 gusting 6 13.3
2019-Oct-16 07:18 053 2 gusting 5 13.3
2019-Oct-16 07:09 057 4 gusting 6 13.3
2019-Oct-16 07:00 042 3 gusting 7 12.8
2019-Oct-16 06:51 059 3 gusting 7 12.8
2019-Oct-16 06:42 069 3 gusting 6 13.3
2019-Oct-16 06:33 029 3 gusting 6 12.8
2019-Oct-16 06:24 032 3 gusting 7 12.8
2019-Oct-16 06:15 019 3 gusting 7 12.8
2019-Oct-16 06:06 005 3 gusting 6 12.8